Flag for Netherlands Weather past 2 weeks in Wageningen, Netherlands

Now
81 °F

Passing clouds.


Feels Like: 80 °F
Forecast: 62 / 89 °F
Wind: 7 mph from East

Location: Deelen

Current Time: Jun 30, 2015 at 5:08:07 PM

Latest Report: Jun 30, 2015 at 4:25 PM


Visibility: N/A

Pressure: 30.12 "Hg

Humidity: 37%

Dew point: 52 °F

Location of WageningenLocation

Historic Weather in Wageningen — Graph

°F

Wageningen temperature yesterday

Maximum temperature yesterday: 75 °F (at 2:25 PM)
Minimum temperature yesterday: 54 °F (at 5:55 AM)
Average temperature yesterday: 66 °F

Past Weeks' High & Low Weather Summary

 TemperatureHumidityPressure
High79 °F (Jun 30, 2:25 PM)100% (Jun 17, 4:25 AM)30.30 "Hg (Jun 17, 4:25 AM)
Low37 °F (Jun 16, 4:55 AM)34% (Jun 25, 5:55 PM)29.68 "Hg (Jun 22, 5:55 PM)
Average59 °F76%30.07 "Hg
* Reported Jun 15 2:25 PM — Jun 30 2:55 PM, Wageningen, Weather by CustomWeather, © 2015

Note: Actual official high and low records may vary slightly from our data, if they occured in-between our weather recording intervals... More about our weather records

Advertising

Wageningen weather history for previous 24 hours

 ConditionsComfort  
Time TempWeatherWind HumidityBarometerVisibility
2:55 PM
Tue, Jun 30
79 °FWarm.6 mph42%30.15 "HgN/A
2:25 PM79 °FWarm.6 mph45%30.15 "HgN/A
1:55 PM77 °FPassing clouds.8 mph42%30.15 "HgN/A
1:25 PM77 °FWarm.6 mph44%30.18 "HgN/A
12:55 PM75 °FPassing clouds.7 mph44%30.18 "HgN/A
12:25 PM75 °FMild.7 mph50%30.18 "HgN/A
11:55 AM73 °FMild.6 mph53%30.18 "HgN/A
11:25 AM73 °FMild.6 mph57%30.18 "HgN/A
10:55 AM73 °FMild.7 mph53%30.18 "HgN/A
10:25 AM72 °FPassing clouds.6 mph61%30.18 "HgN/A
9:55 AM70 °FMild.5 mph60%30.21 "HgN/A
9:25 AM70 °FMild.5 mph64%30.21 "HgN/A
8:55 AM66 °FMild.5 mph68%30.18 "HgN/A
8:25 AM66 °FPassing clouds.5 mph68%30.21 "HgN/A
7:55 AM63 °FPassing clouds.3 mph73%30.18 "HgN/A
7:25 AM61 °FCool.1 mph77%30.18 "HgN/A
6:55 AM54 °FPassing clouds.1 mph100%30.18 "HgN/A
6:25 AM52 °FPassing clouds.2 mph94%30.18 "HgN/A
5:55 AM50 °FPassing clouds.2 mph94%30.18 "HgN/A
4:55 AM48 °FPassing clouds.1 mph100%30.18 "HgN/A
4:25 AM50 °FCool.2 mph94%30.18 "HgN/A
3:55 AM50 °FPassing clouds.No wind94%30.18 "HgN/A
3:25 AM52 °FCool.1 mph94%30.18 "HgN/A
2:55 AM52 °FCool.No wind94%30.18 "HgN/A
2:25 AM52 °FPassing clouds.No wind88%30.18 "HgN/A
1:55 AM54 °FCool.1 mph88%30.21 "HgN/A
1:25 AM54 °FPassing clouds.No wind88%30.21 "HgN/A
12:55 AM54 °FCool.No wind88%30.21 "HgN/A
12:25 AM55 °FPassing clouds.1 mph82%30.21 "HgN/A
11:55 PM
Mon, Jun 29
57 °FCool.No wind82%30.21 "HgN/A
11:25 PM57 °FPassing clouds.5 mph82%30.21 "HgN/A
10:55 PM61 °FCool.1 mph72%30.18 "HgN/A
10:25 PM63 °FPassing clouds.3 mph68%30.21 "HgN/A
9:55 PM64 °FScattered clouds.5 mph68%30.18 "HgN/A
9:25 PM66 °FOvercast.6 mph60%30.18 "HgN/A
8:55 PM68 °FOvercast.8 mph60%30.18 "HgN/A
8:25 PM68 °FOvercast.9 mph60%30.18 "HgN/A
7:55 PM70 °FScattered clouds.8 mph57%30.18 "HgN/A
7:25 PM70 °FOvercast.8 mph60%30.18 "HgN/A
6:55 PM72 °FBroken clouds.12 mph57%30.15 "HgN/A
6:25 PM72 °FBroken clouds.13 mph57%30.15 "HgN/A
5:55 PM73 °FScattered clouds.9 mph57%30.15 "HgN/A
5:25 PM75 °FPassing clouds.8 mph54%30.15 "HgN/A
Weather by CustomWeather, © 2015

See weather overviewHow to use our weather pages